Weather Roundup
Issued by NWS

Home | Current Version | Previous Version | Graphics & Text | Print | Product List | Glossary Off
Versions: 1 2 3 4 5 6 7 8 9 10 11 12 13 14 15 16 17 18 19 20 21 22 23 24 25 26 27 28 29 30 31 32 33 34 35 36 37 38 39 40 41 42 43 44 45 46 47 48 49 50

000
NZUS93 KARX 221310
HRRWXR

CURRENT HOURLY OBSERVATIONS ACROSS
MUCH OF THE UPPER MISSISSIPPI VALLEY
NATIONAL WEATHER SERVICE LA CROSSE WI
800 AM CDT FRI AUG 22 2014


...SOUTHEAST MINNESOTA...


CITY           SKY/WX    TMP DP  RH WIND       PRES   REMARKS
ROCHESTER      CLOUDY    72  70  93 N7        29.94R FOG
ROCHESTER/MAYO CLOUDY    73  70  91 NW5       29.93R
WINONA         CLOUDY    73  72  94 CALM      29.91R FOG
AUSTIN         CLOUDY    72  72 100 N7        29.92S FOG
ALBERT LEA     CLOUDY    72  72 100 N8        29.92F FOG
DODGE CENTER   CLOUDY    72  70  94 N8        29.94R FOG
PRESTON        FOG       71  71 100 NW3       29.93R VSB 1/4
OWATONNA       PTSUNNY   72  70  94 N5        29.94R FOG
FARIBAULT      CLOUDY    73  68  83 N5        29.94R HAZE
$$

...ELSEWHERE IN MINNESOTA...


CITY           SKY/WX    TMP DP  RH WIND       PRES   REMARKS
MINNEAPOLIS    CLOUDY    71  69  93 NW7       29.92R
INTNL FALLS    CLOUDY    65  61  87 CALM      29.99R
DULUTH         FOG       63  61  93 NE3       29.97R VSB 1/4
RED WING       CLOUDY    75  70  83 W5        29.90R
REDWOOD FALLS  CLOUDY    71  71 100 N3        29.92F FOG
MANKATO        CLOUDY    72  68  88 N7        29.93R
WORTHINGTON    MOSUNNY   70  10  10 NE6       29.96R
FAIRMONT       CLOUDY    70  66  88 MISG      29.94R VSB<1/4
$$

...SOUTHWEST WISCONSIN...


CITY           SKY/WX    TMP DP  RH WIND       PRES   REMARKS
LA CROSSE      CLOUDY    75  72  90 S7        29.90R FOG
PRAIRIE DU CHI CLOUDY    72  70  94 E3        29.91S FOG
BOSCOBEL       FOG       72  70  93 CALM      29.93R VSB 1/2
LONE ROCK      CLOUDY    77  72  84 E3        29.92R HAZE
PLATTEVILLE    CLOUDY    72  71  96 CALM      29.94S
FORT MC COY    CLOUDY    71  69  95 CALM      29.92R FOG
CAMP DOUGLAS   FOG       71  71 100 SE6       29.93R VSB 1/2
VIROQUA        CLOUDY    71  71 100 S5        29.94R VSB 1/4
WIS DELLS      CLOUDY    72  70  94 CALM      29.93S FOG
$$

...ELSEWHERE IN WISCONSIN...


CITY           SKY/WX    TMP DP  RH WIND       PRES   REMARKS
MILWAUKEE      PTSUNNY   72  70  93 CALM      29.95R FOG
MADISON        CLOUDY    74  72  93 SE5       29.93R FOG
GREEN BAY      CLOUDY    68  66  93 CALM      29.95R FOG
EAU CLAIRE     CLOUDY    72  72 100 S5        29.89R FOG
BLACK RVR FLS  CLOUDY    71  71 100 CALM      29.91R FOG
MEDFORD        FOG       66  66 100 SE5       29.94R VSB 1/4
WAUSAU         CLOUDY    65  65 100 E7        29.93S FOG
WIS RAPIDS     CLOUDY    71  70  96 E6        29.95R FOG
MARSHFIELD     FOG       70  69  97 SE6       29.93S VSB 1/4
RICE LAKE      FOG       71  69  95 CALM      29.92R VSB 1/2
$$

...NORTHEAST IOWA...


CITY           SKY/WX    TMP DP  RH WIND       PRES   REMARKS
WATERLOO       CLOUDY    73  72  96 CALM      29.89S FOG
DUBUQUE        CLOUDY    73  73 100 NE5       29.91F
DECORAH        CLOUDY    72  72 100 CALM      29.91S FOG
MASON CITY     CLOUDY    73  73 100 CALM      29.93R FOG
CHARLES CITY   FOG       72  72 100 CALM      29.92R VSB<1/4
OELWEIN        CLOUDY    72  72 100 SE3       29.91F FOG
$$

...ELSEWHERE IN IOWA...


CITY           SKY/WX    TMP DP  RH WIND       PRES   REMARKS
DES MOINES     PTSUNNY   75  70  84 E6        29.92R
IOWA CITY      LGT RAIN  75  75 100 CALM      29.92S
FORT DODGE     MOSUNNY   73  73 100 CALM      29.91R
MARSHALLTOWN   PTSUNNY   74  73  97 S6        29.91R
CEDAR RAPIDS   LGT RAIN  74  74 100 S5        29.90S FOG
$$

...NORTHERN ILLINOIS...


CITY           SKY/WX    TMP DP  RH WIND       PRES   REMARKS
CHICAGO-OHARE  PTSUNNY   75  70  84 SW6       29.92S
DUPAGE         PTSUNNY   75  72  90 S7        29.92F
CHICAGO-MIDWAY PTSUNNY   77  73  87 S7        29.93S
MOLINE         CLOUDY    76  73  91 VRB3      29.90S
ROCKFORD       PTSUNNY   75  72  90 S6        29.93F
STERLING       PTSUNNY   75  73  94 CALM      29.92F
PEORIA         LGT RAIN  74  70  87 E6        29.97F
$$

NOTE: "FAIR" INDICATES FEW OR NO CLOUDS BELOW 12,000 FEET WITH NO
SIGNIFICANT WEATHER AND/OR OBSTRUCTIONS TO VISIBILITY. WIND
SPEEDS ARE IN MILES-PER-HOUR.



USA.gov is the U.S. government's official web portal to all federal, state and local government web resources and services.